Weather History for CWDQ - March, 2013

Change the Weather History Date:

Saturday, March 9, 2013

  Actual Average Record
Temperature  
Mean Temperature 32 °F -  
Max Temperature 49 °F - - ()
Min Temperature 14 °F - - ()
Degree Days  
Heating Degree Days 34    
Moisture  
Dew Point 18 °F    
Average Humidity 67    
Maximum Humidity 93    
Minimum Humidity 22    
Precipitation  
Precipitation 0.00 in - - ()
Sea Level Pressure  
Sea Level Pressure 30.36 in    
Wind  
Wind Speed 1 mph ()    
Max Wind Speed 5 mph    
Max Gust Speed -    
T = Trace of Precipitation, MM = Missing Value Source: Averaged Metar Reports

Daily Weather History Graph

Daily Weather History Graph

Search for Another Location

Airport or City:

Trip Planner

Search our weather history database for the weather conditions in past years. The results will help you decide how hot, cold, wet, or windy it might be!

Date:

Astronomy

Mar. 09, 2013 Rise Set
Actual Time 6:15 AM EST 5:48 PM EST
Civil Twilight 5:45 AM EST 6:18 PM EST
Nautical Twilight 5:09 AM EST 6:54 PM EST
Astronomical Twilight 4:33 AM EST 7:30 PM EST
Moon 4:45 AM EST (3/9) 3:41 PM EST (3/9)
Length of Visible Light 12h 33m
Length of Day
11h 32m
Waning Crescent, 5% of the Moon is Illuminated
Mar 9
Waning Crescent
Mar 11
New
Mar 19
First Quarter
Mar 27
Full
Apr 3
Last Quarter

Hourly Weather History & Observations

Time (EST) Temp. Windchill Dew Point Humidity Pressure Visibility Wind Dir Wind Speed Gust Speed Precip Events Conditions
12:00 AM 18.7 °F - 16.7 °F 92% 30.38 in - East 1.2 mph - N/A   Unknown
1:00 AM 18 °F - 17 °F 92% 30.38 in - Calm Calm - -  
1:00 AM 18.5 °F - 16.7 °F 93% 30.38 in - Calm Calm - N/A   Unknown
2:00 AM 18.7 °F - 16.9 °F 93% 30.37 in - East 1.2 mph - N/A   Unknown
3:00 AM 17.1 °F - 14.9 °F 91% 30.37 in - East 1.2 mph - N/A   Unknown
4:00 AM 16.3 °F - 14.0 °F 90% 30.37 in - Calm Calm - N/A   Unknown
5:00 AM 15.4 °F - 13.1 °F 90% 30.39 in - Calm Calm - N/A   Unknown
6:00 AM 16.5 °F - 14.4 °F 91% 30.40 in - East 1.2 mph - N/A   Unknown
7:00 AM 18 °F - 16 °F 86% 30.41 in - Calm Calm - -  
7:00 AM 17.6 °F - 15.6 °F 92% 30.41 in - Calm Calm - N/A   Unknown
8:00 AM 21.2 °F - 19.0 °F 91% 30.40 in - Calm Calm - N/A   Unknown
9:00 AM 25.0 °F - 19.4 °F 79% 30.40 in - East 1.2 mph - N/A   Unknown
10:00 AM 31.1 °F - 20.5 °F 65% 30.39 in - Calm Calm - N/A   Unknown
11:00 AM 36.5 °F - 21.9 °F 56% 30.38 in - NNW 2.3 mph - N/A   Unknown
12:00 PM 41.5 °F - 19.4 °F 41% 30.36 in - NNW 1.2 mph - N/A   Unknown
1:00 PM 45 °F - 18 °F 22% 30.33 in - NNW 1.2 mph - -  
2:00 PM 47.7 °F - 14.9 °F 27% 30.32 in - SW 1.2 mph - N/A   Unknown
3:00 PM 48.7 °F - 14.4 °F 25% 30.31 in - South 4.6 mph - N/A   Unknown
4:00 PM 49.5 °F - 14.9 °F 25% 30.30 in - South 3.5 mph - N/A   Unknown
5:00 PM 48.4 °F - 15.1 °F 26% 30.30 in - South 3.5 mph - N/A   Unknown
6:00 PM 36.5 °F 33.9 °F 21.6 °F 55% 30.32 in - ESE 3.5 mph - N/A   Unknown
7:00 PM 34 °F - 21 °F 46% 30.35 in - ESE 2.3 mph - -  
7:00 PM 34.0 °F - 21.0 °F 59% 30.35 in - ESE 2.3 mph - N/A   Unknown
8:00 PM 31.5 °F 28.1 °F 21.9 °F 68% 30.35 in - SSE 3.5 mph - N/A   Unknown
9:00 PM 30.7 °F 27.3 °F 21.4 °F 68% 30.34 in - South 3.5 mph - N/A   Unknown
10:00 PM 30.0 °F - 20.7 °F 68% 30.35 in - SSE 2.3 mph - N/A   Unknown
11:00 PM 26.8 °F 22.8 °F 20.7 °F 78% 30.35 in - South 3.5 mph - N/A   Unknown